Content
SEND FEEDBACK

Daily
Averages
Monthly
Summary
Netherlands

ROTTERDAM, NETHERLANDS


Home > Europe > Netherlands
Elevation: 13 feet     Latitude: 51 57N     Longitude: 004 26E

WEATHER
 
SELECT A DAY
Number of Records: 414,982;   Date Range: 7/1/96 - 7/28/14
 
SHARE

PRINT THIS DATA

[ ← Previous Day ]
WEATHER ALMANAC - MAY 1, 2013
[ Next Day → ]
[ °C ]   °F
Weather ElementAverageHighLow
Temperature50.2 °F61 °F (5:00 pm)37.4 °F (5:25 am)
Dewpoint38.9 °F44 °F (2:00 pm)33.8 °F (6:25 am)
Humidity65.8 %93 % (5:25 am)37 % (5:00 pm)
Barometer30.21 in30.30 in (12:55 am)30.12 in (5:55 pm)
Wind Speed10.1 mph15 mph (8:25 pm)
Weather ElementAverage
Visibility7.1 mi
Wind DirectionNE (47.1 °)

Weather ElementTotal
Precipitation---
Heating Degree Days15.8 (Base 65)
Averaged from 55 records on May 1, 2013
WEATHER CONDITIONS BREAKOUT
WIND DIRECTION BREAKOUT
WEATHER BY HOUR - MAY 1, 2013
[ °C ]   °F
Local TimeTemperatureDewpointHumidityBarometerVisibilityWind DirectionWind SpeedGust SpeedPrecipitationEventsConditions
12:55 AM44.6 °F39.2 °F81 %30.30 in6.2 miNE (50°)11.5 mph
1:25 AM42.8 °F37.4 °F81 %30.30 in6.2 miENE (60°)11.5 mph
1:55 AM42.8 °F37.4 °F81 %30.30 in6.2 miNE (50°)10.4 mph
2:00 AM42.0 °F37.0 °F77 %30.30 in11.0 miNE (50°)8.9 mphPartly Cloudy
2:25 AM41.0 °F37.4 °F87 %30.27 in6.2 miNE (50°)10.4 mph
2:55 AM41.0 °F37.4 °F87 %30.27 in6.2 miNE (50°)9.2 mph
3:25 AM41.0 °F37.4 °F87 %30.27 in6.2 miNE (50°)8.1 mph
3:55 AM41.0 °F37.4 °F87 %30.27 in6.2 miNE (50°)6.9 mph
4:25 AM39.2 °F35.6 °F87 %30.27 in6.2 miNE (50°)8.1 mph
4:55 AM39.2 °F35.6 °F87 %30.27 in6.2 miNE (50°)8.1 mph
5:00 AM39.0 °F36.0 °F84 %30.29 in9.0 miNE (50°)6.7 mph
5:25 AM37.4 °F35.6 °F93 %30.27 in6.2 miNE (50°)6.9 mph
5:55 AM37.4 °F35.6 °F93 %30.27 in6.2 miENE (60°)8.1 mph
6:25 AM37.4 °F33.8 °F87 %30.27 in6.2 miENE (60°)9.2 mph
6:55 AM39.2 °F33.8 °F81 %30.27 in6.2 miENE (70°)9.2 mph
7:25 AM39.2 °F35.6 °F87 %30.27 in6.2 miENE (60°)10.4 mph
7:55 AM41.0 °F35.6 °F81 %30.27 in6.2 miENE (60°)10.4 mph
8:00 AM42.0 °F36.0 °F71 %30.28 in12.0 miENE (60°)11.2 mphPartly Cloudy
8:25 AM42.8 °F37.4 °F81 %30.27 in6.2 miENE (60°)11.5 mph
8:55 AM44.6 °F37.4 °F76 %30.27 in6.2 miENE (60°)10.4 mph
9:25 AM46.4 °F39.2 °F76 %30.27 in6.2 miENE (60°)10.4 mph
9:55 AM48.2 °F39.2 °F71 %30.27 in6.2 miENE (60°)9.2 mph
10:25 AM50.0 °F41.0 °F71 %30.24 in6.2 miENE (60°)9.2 mph
10:55 AM51.8 °F39.2 °F62 %30.24 in6.2 miENE (60°)10.4 mph
11:00 AM52.0 °F40.0 °F54 %30.26 in14.0 miENE (70°)8.9 mph
11:25 AM53.6 °F42.8 °F67 %30.24 in6.2 miENE (60°)9.2 mph
11:55 AM53.6 °F42.8 °F67 %30.24 in6.2 miENE (60°)8.1 mph
12:25 PM55.4 °F41.0 °F58 %30.21 in6.2 miNE (50°)9.2 mph
12:55 PM57.2 °F39.2 °F51 %30.21 in6.2 miNE (50°)10.4 mph
1:25 PM59.0 °F41.0 °F51 %30.21 in6.2 miENE (60°)11.5 mph
1:55 PM59.0 °F41.0 °F51 %30.18 in6.2 miNE (50°)11.5 mph
2:00 PM60.0 °F44.0 °F45 %30.19 inENE (60°)8.9 mphScattered Clouds
2:25 PM60.8 °F42.8 °F52 %30.18 in6.2 miNE (50°)8.1 mph
2:55 PM60.8 °F41.0 °F48 %30.15 in6.2 miNE (50°)9.2 mph
3:25 PM60.8 °F42.8 °F52 %30.15 in6.2 miNNE (30°)10.4 mph
3:55 PM60.8 °F41.0 °F48 %30.15 in6.2 miNE (50°)11.5 mph
4:25 PM60.8 °F42.8 °F52 %30.15 in6.2 miNE (50°)10.4 mph
4:55 PM60.8 °F41.0 °F48 %30.15 in6.2 miENE (60°)12.7 mph
5:00 PM61.0 °F41.0 °F37 %30.16 in12.0 miENE (60°)11.2 mphPartly Cloudy
5:25 PM60.8 °F41.0 °F48 %30.15 in6.2 miNE (50°)10.4 mph
5:55 PM60.8 °F41.0 °F48 %30.12 in6.2 miNE (50°)9.2 mph
6:25 PM60.8 °F39.2 °F45 %30.12 in6.2 miNE (40°)10.4 mph
6:55 PM59.0 °F41.0 °F51 %30.12 in6.2 miNNE (20°)12.7 mph
7:25 PM59.0 °F41.0 °F51 %30.12 in6.2 miNNE (20°)12.7 mph
7:55 PM57.2 °F41.0 °F55 %30.12 in6.2 miNNE (30°)13.8 mph
8:00 PM57.0 °F39.0 °F40 %30.15 in14.0 miNNE (30°)13.4 mphPartly Cloudy
8:25 PM55.4 °F41.0 °F58 %30.15 in6.2 miNNE (30°)15.0 mph
8:55 PM53.6 °F39.2 °F58 %30.15 in6.2 miNNE (20°)12.7 mph
9:25 PM53.6 °F39.2 °F58 %30.15 in6.2 miNNE (20°)12.7 mph
9:55 PM51.8 °F37.4 °F58 %30.15 in6.2 miNNE (20°)12.7 mph
10:25 PM50.0 °F37.4 °F62 %30.18 in6.2 miNNE (20°)10.4 mph
10:55 PM48.2 °F37.4 °F66 %30.18 in6.2 miNNE (20°)9.2 mph
11:00 PM49.0 °F37.0 °F53 %30.18 in19.0 miNNE (20°)8.9 mph
11:25 PM48.2 °F37.4 °F66 %30.18 in6.2 miNNE (20°)6.9 mph
11:55 PM48.2 °F37.4 °F66 %30.15 in6.2 miNNE (30°)8.1 mph
Hourly data recorded from EHRD, located miles away from Rotterdam, Netherlands







STORIES FROM OUR PARTNERS